Location: ?????? ??????
(44.3742°N, 135.2221°E)
Time: 10:49:53
(UTC+00:00)

H-2A R/B - Pass Details

Date: 19 May 2025
Orbit: 492 x 574 km, 98.2° (Epoch: 14 June)

Event Time Altitude Azimuth Distance (km) Brightness Sun altitude
Exits shadow 16:27:26 31° 289° (WNW) 989 3.5 -22.4°
Drops below altitude 10° 16:30:12 10° 328° (NNW) 1,817 5.4 -22.2°
Sets 16:32:27 0° 338° (NNW) 2,699 6.5 -22.0°
